#timestamp,LO_Frequency,Hit,StdDev 
1662008415.2,286046998.3,N
1662008435.0,286046998.3,N
1662008435.9,286046998.3,N
1662008455.8,286046998.9,N
1662008475.6,286046999.1,N
1662008495.4,286046998.4,N
1662008515.3,286046998.7,N
1662008535.1,286046998.7,N
1662008555.8,286046999.0,N
1662008575.7,286046998.7,N
1662008595.5,286046998.7,N
1662008615.4,286047001.1,N
1662008635.2,286047011.9,Y
1662008655.0,286046998.1,P
1662008655.9,286046998.1,P
1662008675.8,286047000.9,N
1662008695.6,286047001.0,N
1662008715.5,286047000.9,N
1662008735.3,286047001.0,N
1662008755.1,286047000.6,N
1662008775.9,286047000.3,N
1662008795.7,286047001.0,N
1662008815.5,286047000.9,N
1662008835.4,286047000.0,N
1662008855.2,286047000.2,N
1662008875.1,286046999.9,N
1662008876.0,286046999.9,N
1662008895.8,286047000.3,N
1662008915.6,286047000.3,N
1662008935.5,286047000.5,N
1662008955.3,286046998.2,N
1662008975.1,286046998.5,N
1662008995.9,286047000.9,N
1662009015.7,286047001.0,N
1662009035.6,286047001.2,N
1662009055.4,286046998.1,N
1662009075.2,286046998.6,N
1662009095.1,286046998.5,N
1662009096.0,286046998.5,N
1662009115.8,286046998.5,N
1662009135.6,286046998.6,N
1662009155.5,286047001.2,N
1662009175.3,286046998.8,N
1662009195.1,286046998.6,N
1662009215.9,286047001.2,N
1662009235.7,286046998.3,N
1662009255.6,286046998.6,N
1662009275.4,286046998.1,N
1662009295.2,286047000.6,N
1662009315.1,286046999.8,N
1662009316.0,286046999.8,N
1662009335.8,286047002.7,N
1662009355.7,286047000.0,N
1662009375.5,286047000.3,N
1662009395.3,286046999.9,N
1662009415.2,286047000.1,N
1662009435.9,286047000.1,N
1662009455.7,286047000.1,N
1662009475.6,286047002.0,N
1662009495.4,286047001.9,N
1662009515.3,286047004.3,Y
1662009535.1,286047001.4,P
1662009555.8,286047003.9,P
1662009575.7,286047003.8,N
1662009595.5,286047003.4,N
1662009615.4,286047004.2,N
1662009635.2,286047002.9,N
1662009655.0,286047005.6,Y
1662009655.9,286047005.6,P
1662009675.8,286047002.0,N
1662009695.6,286047002.0,N
1662009715.4,286047002.1,N
1662009735.3,286047001.6,N
1662009755.1,286047001.6,N
1662009775.9,286047004.0,Y
1662009795.7,286046999.9,P
1662009815.5,286047001.1,N
1662009835.4,286047000.4,N
1662009855.2,286047002.4,N
1662009875.0,286047001.0,N
1662009876.0,286047001.0,N
1662009895.8,286047002.8,Y
1662009915.6,286046998.2,P
1662009935.5,286046998.6,N
1662009955.3,286047000.8,N
1662009975.1,286046998.7,N
1662009995.9,286047001.2,N
1662010015.7,286047000.8,N
1662010035.6,286047001.2,N
1662010055.4,286047000.3,N
1662010075.2,286047000.1,N
1662010095.1,286046999.7,N
1662010096.0,286046999.7,N
1662010115.8,286047002.7,N
1662010135.6,286047002.6,N
1662010155.5,286047002.4,N
1662010175.3,286047000.1,N
1662010195.2,286047002.2,N
1662010215.9,286047002.0,N
1662010235.7,286047002.7,N
1662010255.6,286047002.7,N
1662010275.4,286047002.1,N
1662010295.2,286047001.9,N
1662010315.1,286047001.7,N
1662010316.0,286047001.7,N
1662010335.8,286047001.8,N
1662010355.7,286047004.3,Y
1662010375.5,286047002.1,P
1662010395.3,286047001.3,N
1662010415.2,286047001.3,N
1662010435.0,286047001.9,Y
1662010435.9,286047001.9,P
1662010455.8,286047000.4,N
1662010475.6,286047000.5,N
1662010495.4,286046999.7,N
1662010515.3,286047000.5,N
1662010535.1,286047000.5,N
1662010555.9,286047000.8,N
1662010575.7,286047000.4,N
1662010595.5,286047000.1,N
1662010615.4,286046999.9,N
1662010635.2,286047000.5,N
1662010655.0,286047001.1,N
1662010655.9,286047001.1,N
1662010675.8,286047001.0,N
1662010695.6,286047000.2,N
1662010715.5,286047002.8,Y
1662010735.3,286047000.3,P
1662010755.1,286047000.0,N
1662010775.9,286047002.8,P
1662010795.7,286047000.0,N
1662010815.5,286047000.2,N
1662010835.4,286046999.7,N
1662010855.2,286047000.0,N
1662010875.1,286047000.0,N
1662010876.0,286047000.0,N
1662010895.8,286047000.6,N
1662010915.6,286047000.8,N
1662010935.5,286047000.6,N
1662010955.3,286047000.1,N
1662010975.1,286046999.8,N
1662010995.9,286047002.0,N
1662011015.7,286047000.2,N
1662011035.6,286047002.3,N
1662011055.4,286047002.1,N
1662011075.2,286047001.8,N
1662011095.1,286047001.4,N
1662011096.0,286047001.4,N
1662011115.8,286047004.2,Y
1662011135.7,286047002.0,P
1662011155.5,286047002.5,P
1662011175.3,286047002.7,P
1662011195.2,286047001.9,N
1662011215.9,286047002.0,N
1662011235.7,286047000.1,N
1662011255.6,286046999.9,N
1662011275.4,286046999.8,N
1662011295.2,286047002.4,N
1662011315.1,286046999.8,N
1662011316.0,286046999.8,N
1662011335.8,286046999.9,N
1662011355.7,286047002.8,N
1662011375.5,286047002.0,N
1662011395.3,286047001.5,N
1662011415.2,286047001.8,N
1662011435.0,286047004.1,Y
1662011435.9,286047004.1,P
1662011455.8,286047000.0,N
1662011475.6,286046999.0,N
1662011495.4,286046996.6,N
1662011515.3,286046995.5,N
1662011535.1,286046996.4,N
1662011555.8,286046995.9,N
1662011575.7,286046996.0,N
1662011595.5,286046996.2,N
1662011615.4,286046995.9,N
1662011635.2,286046995.6,N
1662011655.0,286046996.1,N
1662011655.9,286046996.1,N
1662011675.8,286046997.7,N
1662011695.6,286046995.2,N
1662011715.4,286046995.2,N
1662011735.3,286046996.0,N
1662011755.1,286046997.9,N
1662011775.9,286046997.5,N
1662011795.7,286046995.8,N
1662011815.5,286046993.8,N
1662011835.6,286046993.6,N
1662011855.4,286046995.9,N
1662011875.2,286046995.8,N
1662011895.1,286046996.0,N
1662011896.0,286046996.0,N
1662011915.8,286046995.1,N
1662011935.6,286046996.0,N
1662011955.5,286046996.2,N
1662011975.3,286046994.2,N
1662011995.2,286046996.2,N
